SCP
0 0 0 0 0 0 0 0 0 0 0 0 0 0 0 0 0 0 0 0 0 0 0 0 0 0 0 0 0 0 0 0 0 0 0 0 0 0 0 0 0 0 0
0 0 0 0 0 0 0 0 0 0 0 0 0 0 0 0 0 0 0 0 0 0 0 0 0 0 0 0 0 0 0 0 0 0 0 0 0 0 0 0 0 0 0
0 0 0 0 0 0 0 0 0 0 0 0 0 0 0 0 0 0 0 0 0 0 0 0 0 0 0 0 0 0 0 0 0 0 0 0 0 0 0 0 0 0 0
0 0 0 0 0 0 0 0 0 0 0 0 0 0 0 0 0 0 0 0 0 0 0 0 0 0 0 0 0 0 0 0 0 0 0 0 0 0 0 0 0 0 0
0 0 0 0 0 0 0 0 0 0 0 0 0 0 0 0 0 0 0 0 0 0 0 0 0 0 0 0 0 0 0 0 0 0 0 0 0 0 0 0 0 0 0
0 0 0 0 0 0 0 0 0 0 0 0 0 0 0 0 0 0 0 0 0 0 0 0 0 0 0 0 0 0 0 0 0 0 0 0 0 0 0 0 0 0 0
0 0 0 0 0 0 0 0 0 0 0 0 0 0 0 0 0 0 0 0 0 0 0 0 0 0 0 0 0 0 0 0 0 0 0 0 0 0 0 0 0 0 0
0 0 0 0 0 0 0 0 0 0 0 0 0 0 0 0 0 0 0 0 0 0 0 0 0 0 0 0 0 0 0 0 0 0 0 0 0 0 0 0 0 0 0
0 0 0 0 0 0 0 0 0 0 0 0 0 0 0 0 0 0 0 0 0 0 0 0 0 0 0 0 0 0 0 0 0 0 0 0 0 0 0 0 0 0 0
0 0 0 0 0 0 0 0 0 0 0 0 0 0 0 0 0 0 0 0 0 0 0 0 0 0 0 0 0 0 0 0 0 0 0 0 0 0 0 0 0 0 0
0 0 0 0 0 0 0 0 0 0 0 0 0 0 0 0 0 0 0 0 0 0 0 0 0 0 0 0 0 0 0 0 0 0 0 0 0 0 0 0 0 0 0
0 0 0 0 0 0 0 0 0 0 0 0 0 0 0 0 0 0 0 0 0 0 0 0 0 0 0 0 0 0 0 0 0 0 0 0 0 0 0 0 0 0 0
0 0 0 0 0 0 0 0 0 0 0 0 0 0 0 0 0 0 0 0 0 0 0 0 0 0 0 0 0 0 0 0 0 0 0 0 0 0 0 0 0 0 0
1 1 0 0 0 0 0 0 0 0 0 0 0 0 0 0 0 0 0 0 0 0 0 0 0 0 0 0 0 0 0 0 0 0 0 0 0 0 0 0 0 0 0
1 0 0 0 0 0 0 0 0 0 0 0 0 0 0 0 0 0 0 0 0 0 0 0 0 0 0 0 0 0 0 0 0 0 0 0 0 0 0 0 0 0 0
0 0 0 0 0 0 0 0 0 0 0 0 0 0 0 0 0 0 0 0 0 0 0 0 0 0 0 0 0 0 0 0 0 0 0 0 0 0 0 0 0 0 0
0 0 0 0 0 0 0 0 0 0 0 0 0 0 0 0 0 0 0 0 0 0 0 0 0 0 0 0 0 0 0 0 0 0 0 0 0 0 0 0 0 0 0
0 0 0 0 0 0 0 0 0 0 0 0 0 0 0 0 0 0 0 0 0 0 0 0 0 0 0 0 0 0 0 0 0 0 0 0 0 0 0 0 0 0 0
0 0 0 0 0 0 0 0 0 0 0 0 0 0 0 0 0 0 0 0 0 0 0 0 0 0 0 0 0 0 0 0 0 0 0 0 0 0 0 0 0 0 0
0 0 0 0 0 0 0 0 0 0 0 0 0 0 0 0 0 0 0 0 0 0 0 0 0 0 0 0 0 0 0 0 0 0 0 0 0 0 0 0 0 0 0
0 0 0 0 0 0 0 0 0 0 0 0 0 0 0 0 0 0 0 0 0 0 0 0 0 0 0 0 0 0 0 0 0 0 0 0 0 0 0 0 0 0 0
0 0 0 0 0 0 0 0 0 0 0 0 0 0 0 0 0 0 0 0 0 0 0 0 0 0 0 0 0 0 0 0 0 0 0 0 0 0 0 0 0 0 0
0 0 0 0 0 0 0 0 0 0 0 0 0 0 0 0 0 0 0 0 0 0 0 0 0 0 0 0 0 0 0 0 0 0 0 0 0 0 0 0 0 0 0
0 0 0 0 0 0 0 0 0 0 0 0 0 0 0 0 0 0 0 0 0 0 0 0 0 0 0 0 0 0 0 0 0 0 0 0 0 0 0 0 0 0 0
0 0 0 0 0 0 0 0 0 0 0 0 0 0 0 0 0 0 0 0 0 0 0 0 0 0 0 0 0 0 0 0 0 0 0 0 0 0 0 0 0 0 0
0 0 0 0 0 0 0 0 0 0 0 0 0 0 0 0 0 0 0 0 0 0 0 0 0 0 0 0 0 0 0 0 0 0 0 0 0 0 0 0 0 0 0
Wind_Speed
2 2 1 1 1 1 1 1 2 2 1 2 2 3 3 3 3 2 2 7 8 8 8 8 8 8 7 8 7 7 8 8 8 8 7 7 7 7 7 7 7 7 7
2 2 2 1 1 1 2 2 2 2 1 1 2 2 3 3 3 3 2 4 7 7 7 7 8 7 7 8 7 7 7 7 8 8 7 7 7 7 8 7 7 7 7
3 3 2 1 1 2 2 2 2 2 1 1 1 1 2 3 3 3 2 2 3 6 7 7 7 7 7 7 7 7 8 8 8 8 8 8 8 8 8 7 7 7 7
3 3 3 2 2 2 2 2 2 2 1 1 1 1 1 2 3 3 2 2 2 2 4 7 6 6 7 7 7 7 8 8 8 8 9 8 8 8 7 7 7 7 7
3 3 3 2 2 2 2 2 2 2 2 1 1 1 1 2 2 3 3 3 2 2 2 5 6 6 7 7 7 7 7 8 8 8 9 8 8 7 7 7 7 7 7
3 3 2 2 3 2 2 2 2 1 2 2 2 1 0 1 2 3 3 3 3 3 3 3 2 4 6 6 6 6 7 7 8 8 9 8 8 7 7 7 7 7 7
3 3 2 2 2 2 2 3 3 2 1 1 2 2 2 1 0 1 2 2 3 3 3 3 2 1 2 4 4 5 6 7 8 8 9 8 7 7 7 7 7 7 7
3 3 3 3 3 2 2 2 3 2 1 1 3 2 2 3 2 1 0 2 2 2 3 3 3 3 2 1 3 6 6 6 7 7 8 8 8 7 7 7 7 7 7
3 3 3 3 3 3 2 2 3 3 2 0 2 3 3 2 1 2 1 1 1 2 2 2 3 3 3 2 2 4 6 6 7 7 7 8 8 8 8 8 8 7 7
2 3 3 3 3 3 3 2 2 2 3 1 0 1 2 4 3 0 2 1 1 2 2 2 3 3 3 3 3 5 5 6 7 7 7 7 8 8 8 8 8 8 8
1 2 3 3 3 3 3 2 2 2 2 2 1 1 1 1 2 3 1 2 1 1 2 2 2 2 3 3 3 4 6 6 5 6 6 7 7 8 8 8 8 8 8
1 2 2 2 3 2 3 3 3 3 2 2 1 1 2 2 2 2 2 2 1 2 1 2 2 3 3 3 5 6 6 6 6 6 6 7 7 7 7 8 8 8 7
1 2 2 2 2 3 3 2 2 2 2 2 2 1 1 1 2 2 2 1 1 1 1 1 2 2 3 2 3 6 7 7 7 7 7 7 7 7 7 7 7 7 7
2 2 3 3 3 3 3 3 2 2 2 2 2 2 1 1 1 2 3 2 1 1 1 2 1 1 2 2 4 6 5 8 8 8 8 8 8 8 8 7 7 7 6
2 2 2 3 2 2 3 3 2 2 2 2 2 1 1 1 1 1 2 3 3 2 2 2 1 2 2 1 3 3 3 7 9 9 9 9 9 9 9 8 8 8 7
2 2 2 3 3 3 3 3 2 2 2 2 2 2 1 1 1 1 1 2 2 3 2 2 2 2 2 2 3 3 3 6 9 9 10 10 10 10 9 9 9 8 8
2 2 2 2 3 3 3 3 3 3 3 2 1 2 2 2 1 1 1 1 2 2 2 2 2 1 1 1 1 2 2 3 4 8 10 10 10 10 10 9 9 9 9
2 2 2 2 3 3 3 4 4 4 3 3 3 2 2 2 1 1 1 1 1 2 2 2 2 1 2 2 2 2 2 2 2 5 7 9 9 10 10 10 10 10 9
2 2 3 3 3 3 3 4 4 4 4 4 4 3 3 2 2 1 1 1 1 1 1 2 2 1 1 1 0 2 2 1 2 3 4 6 8 9 9 10 10 10 10
3 3 3 4 4 4 3 3 3 3 3 4 3 4 3 4 4 3 2 2 2 1 1 1 1 1 1 1 0 1 1 1 2 2 2 3 5 7 9 9 10 10 10
3 3 3 3 3 3 3 4 3 3 3 3 3 3 3 4 5 4 2 2 2 2 1 1 1 1 1 1 1 1 2 2 2 1 1 2 2 3 4 7 9 10 10
3 3 3 3 3 3 4 5 4 3 3 3 3 3 3 3 4 4 4 4 5 4 3 3 2 2 3 3 2 2 1 0 2 2 1 3 1 3 3 4 7 10 10
3 3 3 4 4 4 5 5 5 3 3 3 4 3 3 3 3 3 3 3 4 5 6 5 4 4 4 4 3 2 2 2 3 2 1 3 2 3 3 4 7 9 10
3 3 4 4 4 4 5 5 5 3 3 3 4 4 4 4 4 3 3 3 3 4 5 5 5 5 5 4 5 4 4 2 2 2 2 2 2 3 3 3 6 8 9
3 3 3 4 4 4 5 6 5 2 3 4 4 4 4 4 5 5 3 3 3 4 4 5 6 6 6 6 4 2 1 1 2 2 1 2 2 2 2 3 4 6 7
3 3 3 4 4 4 5 6 6 3 3 3 3 3 5 5 5 5 4 4 4 4 2 2 2 3 3 3 5 4 4 3 2 2 2 2 1 0 2 2 2 2 3
Wind_Direction
145 134 142 139 133 118 132 127 116 110 113 111 122 127 129 142 138 138 149 156 151 148 153 158 161 164 164 163 161 163 166 165 166 165 164 166 169 171 166 163 161 162 163
145 136 141 146 144 149 142 135 138 133 123 115 124 128 138 140 144 144 144 158 158 158 159 166 170 169 170 169 166 166 168 172 173 172 170 170 170 169 168 168 168 170 171
150 143 132 138 157 153 135 121 117 109 110 102 95 121 144 148 149 150 150 154 166 172 170 167 168 173 176 176 176 178 180 181 179 178 175 171 174 175 173 174 177 179 179
152 145 141 145 139 134 128 130 121 106 100 104 117 157 158 153 152 156 153 155 162 171 175 173 178 182 185 186 186 185 185 185 184 184 182 178 177 178 181 183 185 186 187
143 141 148 150 137 128 130 146 128 131 139 150 159 153 166 168 169 163 167 169 167 162 162 179 186 191 192 190 191 191 188 188 187 185 182 179 178 180 184 187 188 188 188
151 143 144 143 136 125 124 132 133 137 155 165 152 126 160 180 166 172 181 179 177 173 170 173 185 198 196 198 198 194 188 184 183 183 182 182 182 183 186 189 191 189 187
151 147 142 135 136 137 145 138 135 134 124 116 95 54 9 3 129 182 180 168 181 186 175 177 180 182 192 191 192 189 189 186 186 187 187 186 184 180 184 189 193 190 189
151 153 147 147 144 138 131 131 130 128 147 132 127 111 42 359 347 329 156 164 179 172 175 183 179 181 176 168 187 193 193 193 192 192 193 192 192 188 187 190 193 193 191
151 152 154 151 147 145 160 166 149 143 159 200 142 141 145 195 293 326 308 198 180 175 188 185 183 193 191 189 193 206 200 199 203 203 197 193 193 194 195 196 197 197 198
138 146 151 156 157 156 158 172 159 155 150 178 250 153 158 155 150 259 319 306 223 194 201 195 193 199 198 200 200 195 194 197 202 205 201 195 197 196 199 204 206 206 207
137 147 158 160 161 163 166 166 153 149 153 168 185 169 119 100 125 144 212 297 311 258 217 208 198 200 202 202 204 202 195 195 201 205 205 204 202 202 202 207 210 211 213
184 172 166 166 168 168 174 176 165 161 168 162 169 160 155 153 169 153 173 216 248 269 246 212 201 206 207 204 208 197 197 197 202 204 207 209 206 204 204 210 214 214 214
200 209 182 175 172 173 175 163 158 164 164 161 171 174 172 183 164 153 149 178 223 282 291 257 225 208 208 204 217 205 203 201 203 204 209 212 209 208 209 212 216 213 215
208 205 193 176 173 169 165 157 159 168 152 175 180 166 155 178 157 148 156 151 142 317 314 273 275 231 226 211 221 207 211 206 209 212 214 214 211 212 213 215 213 212 212
208 190 186 185 183 170 165 162 170 180 163 186 195 179 178 191 170 161 154 155 160 189 248 264 273 263 243 220 220 208 219 220 219 218 218 216 216 216 217 214 211 211 210
221 199 199 192 188 186 177 170 176 196 181 195 183 165 189 200 188 159 164 166 167 170 213 242 241 252 233 225 221 221 236 237 229 225 225 222 219 217 219 218 216 214 212
201 197 201 196 193 196 190 177 192 196 192 199 186 173 198 189 166 202 181 176 178 159 189 256 256 270 235 237 261 256 256 245 245 237 233 229 225 222 221 220 220 218 216
209 198 190 192 199 199 197 194 202 198 196 204 200 183 210 195 175 195 182 198 202 184 175 223 264 268 251 238 239 245 254 244 248 248 237 232 228 224 223 224 222 220 219
220 212 191 193 196 199 203 210 208 205 206 206 201 194 206 188 196 206 195 201 212 183 162 181 244 258 264 262 264 280 274 271 258 251 236 235 232 229 227 227 223 219 221
216 216 207 207 202 198 199 207 210 211 211 212 207 201 200 192 200 200 198 206 189 161 152 168 238 270 266 272 150 273 299 294 272 258 241 239 240 236 232 228 227 224 223
217 213 206 209 206 199 205 205 206 202 203 211 219 215 210 199 199 196 194 200 184 182 174 181 228 248 259 256 239 227 242 275 273 247 249 256 243 245 238 234 233 231 228
226 209 201 199 204 212 206 198 189 197 202 204 219 232 231 214 210 210 210 194 181 182 192 192 211 227 241 232 228 214 209 271 283 262 208 264 229 247 250 234 231 227 228
218 208 208 201 208 216 203 196 193 187 199 213 218 223 233 230 221 224 231 231 219 211 197 189 202 220 222 220 205 213 211 208 236 249 191 261 247 250 254 252 238 229 228
219 216 213 205 205 221 209 199 196 190 201 219 222 219 218 229 231 216 221 232 239 235 223 209 208 221 225 221 207 206 212 227 264 261 174 234 255 250 259 251 245 236 231
225 225 213 202 205 225 213 202 194 191 214 233 233 228 220 226 237 219 202 221 245 261 253 233 227 231 234 232 206 160 161 163 259 270 205 207 246 263 267 256 251 235 235
222 222 219 211 207 217 214 208 195 189 213 234 244 241 234 233 236 209 196 202 231 248 251 265 265 266 247 230 209 192 187 186 200 251 237 199 240 225 293 282 271 257 244